Forecasts are only available for sites displaying the forecast symbol.

Some water levels are actually in metres AHD (Australian Height Datum), click individual sites for more details.

Scroll for more >

River gauges, storages, and weirs in the Murray–Darling Basin

Type Locationsort ascending River Water level Flow Volume Release Water temp Salinity Rainfall
Weirs Yarrawonga Weir Upstream Murray 124.77 m 22/08/2019 8:45 Not measured Not measured Not measured Not measured Not measured 0.0 mm 22/08/2019 9:00 Full data
Weirs Yarrawonga Weir Downstream Murray 1.55 m 22/08/2019 9:00 9103 ML/Day 22/08/2019 9:00 Not measured Not measured 10.2°C 22/08/2019 9:00 39.8 μS/cm 22/08/2019 9:00 Not measured Full data
River Gauge Yarrawonga Main Channel Murray 123.25 m 22/08/2019 8:45 Not measured Not measured 251.6 ML/d22/08/2019 8:45 Not measured Not measured Not measured Full data
River Gauge Wilcania Darling -0.13 m 22/08/2019 8:45 1 ML/Day 22/08/2019 8:45 Not measured Not measured 18.8°C 22/08/2019 8:45 0.0 μS/cm 22/08/2019 8:45 Not measured Full data
Weirs Wentworth Weir Murray 27.97 m 22/08/2019 8:45 Not measured Not measured 8810.0 ML/d22/08/2019 8:45 Not measured 99.0 μS/cm 21/08/2019 7:45 0.0 mm 31/01/2019 9:00 Full data
River Gauge Weir 32 Upstream Darling 1.02 m 22/08/2019 8:45 1 ML/Day 22/08/2019 8:45 Not measured Not measured 12.4°C 22/08/2019 8:45 1354.2 μS/cm 22/08/2019 8:45 Not measured Full data
River Gauge Wakool Junction Murray 3.39 m 22/08/2019 8:45 9891 ML/Day 22/08/2019 8:45 Not measured Not measured 10.6°C 22/08/2019 8:45 79.5 μS/cm 22/08/2019 8:45 Not measured Full data
River Gauge Wakool Canal Wakool 0.44 m 22/08/2019 8:45 Not measured Not measured 42.0 ML/d22/08/2019 8:45 Not measured Not measured Not measured Full data
Weirs Torrumbarry Weir Upstream Murray 86.05 m 22/08/2019 8:30 Not measured 37 GL 22/08/2019 8:45 Not measured 9.6°C 21/08/2019 8:45 60.4 μS/cm 22/08/2019 4:45 0.0 mm 22/08/2019 9:00 Full data
Weirs Torrumbarry Weir Downstream Murray 2.72 m 22/08/2019 8:45 8163 ML/Day 22/08/2019 8:45 Not measured Not measured 10.1°C 22/08/2019 8:45 60.6 μS/cm 22/08/2019 8:45 Not measured Full data
River Gauge Torrumbarry Headworks Murray 84.63 m 22/08/2019 8:45 Not measured Not measured 1012.5 ML/d22/08/2019 8:45 Not measured Not measured Not measured Full data
River Gauge Tocumwal Murray 1.98 m 22/08/2019 8:45 8184 ML/Day 22/08/2019 8:45 Not measured Not measured 10.4°C 22/08/2019 8:45 43.9 μS/cm 22/08/2019 8:45 Not measured Full data
River Gauge Tauwitchere Barrage Murray 0.73 m 22/08/2019 7:45 Not measured Not measured Not measured Not measured Not measured Not measured Full data
River Gauge Tallandoon Mitta 2.66 m 22/08/2019 8:45 5204 ML/Day 22/08/2019 8:45 Not measured Not measured 9.1°C 22/08/2019 8:45 43.6 μS/cm 22/08/2019 8:45 Not measured Full data
River Gauge Swan Hill Murray 1.5 m 22/08/2019 8:45 8002 ML/Day 22/08/2019 8:45 Not measured Not measured 10.2°C 22/08/2019 8:45 84.7 μS/cm 22/08/2019 8:45 Not measured Full data
River Gauge Stoney Crossing Murray 1.42 m 22/08/2019 8:45 479 ML/Day 22/08/2019 8:45 Not measured 486.8 ML/d22/08/2019 7:45 11.2°C 22/08/2019 8:45 185.2 μS/cm 22/08/2019 8:45 Not measured Full data
Weirs Steven's Weir Upstream Edward 4.57 m 22/08/2019 8:45 Not measured Not measured Not measured Not measured Not measured Not measured Full data
Weirs Steven's Weir Downstream Edward 2 m 22/08/2019 8:45 2000 ML/Day 22/08/2019 8:45 Not measured Not measured 10.4°C 22/08/2019 8:45 42.8 μS/cm 22/08/2019 8:45 Not measured Full data
River Gauge Rufus River Murray 20 m 21/08/2019 7:45 Not measured Not measured 1163.7 ML/d21/08/2019 7:45 Not measured 133.7 μS/cm 22/08/2019 0:45 Not measured Full data
River Gauge Rochester Campaspe 1.69 m 22/08/2019 8:45 70 ML/Day 22/08/2019 8:45 Not measured Not measured 10.2°C 22/08/2019 8:45 575.8 μS/cm 22/08/2019 8:45 1.2 mm 22/08/2019 9:00 Full data
River Gauge Redcliffs Murray Not measured Not measured Not measured Not measured Not measured 54.9 μS/cm 22/08/2019 8:45 Not measured Full data
River Gauge Pinegrove Murray 1.94 m 22/08/2019 9:00 1584 ML/Day 22/08/2019 9:00 Not measured Not measured 8.3°C 22/08/2019 9:00 81.7 μS/cm 22/08/2019 9:00 0.2 mm 22/08/2019 9:00 Full data
River Gauge Peechelba Ovens 128.66 m 22/08/2019 8:45 5931 ML/Day 22/08/2019 8:45 Not measured Not measured 9.6°C 22/08/2019 8:45 44.0 μS/cm 22/08/2019 8:45 Not measured Full data
River Gauge Murray Bridge Murray 0.78 m 22/08/2019 7:45 Not measured Not measured Not measured 11.9°C 22/08/2019 7:45 394.0 μS/cm 22/08/2019 7:45 Not measured Full data
River Gauge Mundoo Barrage Murray 0.72 m 21/08/2019 7:45 Not measured Not measured Not measured Not measured Not measured Not measured Full data
River Gauge Mulwala Canal Murray Not measured Not measured Not measured 460.2 ML/d22/08/2019 8:45 Not measured Not measured Not measured Full data
River Gauge Morgan Downstream Murray Not measured Not measured Not measured 2746.5 ML/d22/08/2019 7:45 Not measured 245.7 μS/cm 22/08/2019 3:45 Not measured Full data
Weirs Mildura Weir downstream Murray 31.12 m 22/08/2019 8:45 Not measured Not measured Not measured 11.7°C 22/08/2019 8:45 102.9 μS/cm 22/08/2019 8:45 Not measured Full data
Storage Menindee Lakes Darling Not measured Not measured 14 GL 22/08/2019 7:45 Not measured Not measured Not measured Not measured Full data
River Gauge McCoy Bridge Goulburn 2.09 m 21/08/2019 23:30 2049 ML/Day 21/08/2019 23:30 Not measured Not measured 10.5°C 21/08/2019 22:45 94.7 μS/cm 21/08/2019 23:00 Not measured Full data
Weirs Lock 9 Upstream Murray 27.57 m 22/08/2019 7:45 Not measured Not measured Not measured 11.8°C 22/08/2019 7:45 89.2 μS/cm 22/08/2019 7:45 Not measured Full data
Weirs Lock 9 Downstream Murray 24.74 m 22/08/2019 7:45 Not measured Not measured Not measured Not measured Not measured Not measured Full data
Weirs Lock 8 Upstream Murray 24.74 m 22/08/2019 6:45 Not measured Not measured Not measured 11.9°C 22/08/2019 6:45 87.8 μS/cm 22/08/2019 6:45 Not measured Full data
Weirs Lock 7 Upstream Murray 22.26 m 22/08/2019 7:45 Not measured Not measured Not measured 12.1°C 22/08/2019 7:45 92.8 μS/cm 22/08/2019 7:45 Not measured Full data
Weirs Lock 7 Downstream Murray 19.72 m 22/08/2019 7:45 Not measured Not measured Not measured Not measured Not measured Not measured Full data
Weirs Lock 6 Upstream Murray 19.21 m 22/08/2019 7:45 Not measured Not measured Not measured 12.2°C 22/08/2019 7:45 112.5 μS/cm 22/08/2019 7:45 Not measured Full data
Weirs Lock 6 Downstream Murray 16.28 m 22/08/2019 7:45 Not measured Not measured Not measured Not measured Not measured Not measured Full data
Weirs Lock 5 Upstream Murray 16.3 m 22/08/2019 7:45 Not measured Not measured Not measured 12.5°C 22/08/2019 7:45 124.0 μS/cm 22/08/2019 7:45 Not measured Full data
Weirs Lock 5 Downstream Murray 13.31 m 22/08/2019 7:45 Not measured Not measured Not measured Not measured Not measured Not measured Full data
Weirs Lock 4 Upstream Murray 13.24 m 22/08/2019 7:45 Not measured Not measured Not measured Not measured Not measured Not measured Full data
Weirs Lock 4 Downstream Murray 10.18 m 22/08/2019 7:45 Not measured Not measured Not measured Not measured Not measured Not measured Full data
Weirs Lock 3 Upstream Murray 9.83 m 22/08/2019 7:45 Not measured Not measured Not measured Not measured Not measured Not measured Full data
Weirs Lock 3 Downstream Murray 6.69 m 22/08/2019 7:45 Not measured Not measured Not measured Not measured Not measured Not measured Full data
Weirs Lock 2 Upstream Murray 6.59 m 22/08/2019 7:45 Not measured Not measured Not measured 12.2°C 22/08/2019 7:45 242.9 μS/cm 22/08/2019 7:45 Not measured Full data
Weirs Lock 2 Downstream Murray 3.31 m 22/08/2019 7:45 Not measured Not measured Not measured Not measured Not measured Not measured Full data
Weirs Lock 1 Upstream Murray 3.23 m 22/08/2019 7:45 Not measured Not measured Not measured 12.4°C 22/08/2019 7:45 247.7 μS/cm 22/08/2019 7:45 Not measured Full data
Weirs Lock 1 Downstream Murray 0.85 m 22/08/2019 7:45 Not measured Not measured 3433.1 ML/d21/08/2019 7:45 Not measured Not measured Not measured Full data
Storage Lake Victoria Murray 25.59 m 22/08/2019 7:45 Not measured 512 GL 22/08/2019 7:45 Not measured 11.1°C 22/08/2019 7:45 134.3 μS/cm 22/08/2019 7:45 Not measured Full data
River Gauge Lake Alexandrina Murray 0.76 m 22/08/2019 5:45 Not measured 1620 GL 22/08/2019 5:45 Not measured Not measured 879.7 μS/cm 20/08/2019 8:45 Not measured Full data
River Gauge Lake Albert Murray 0.85 m 22/08/2019 5:45 Not measured 287 GL 21/08/2019 5:45 Not measured Not measured Not measured Not measured Full data
River Gauge Kerang Loddon 0.42 m 22/08/2019 8:45 310 ML/Day 22/08/2019 8:45 Not measured Not measured 10.7°C 22/08/2019 8:45 319.4 μS/cm 22/08/2019 8:45 Not measured Full data
River Gauge Jingellic Murray 1.79 m 22/08/2019 8:45 5185 ML/Day 22/08/2019 8:45 Not measured Not measured 9.5°C 22/08/2019 8:45 45.4 μS/cm 22/08/2019 8:45 0.2 mm 22/08/2019 9:00 Full data
Storage Hume Dam Murray 181.04 m 22/08/2019 9:00 Not measured 1254 GL 22/08/2019 9:00 4540.0 ML/d22/08/2019 8:00 Not measured Not measured 1.2 mm 22/08/2019 9:00 Full data
River Gauge Hinnomunjie Mitta 1.05 m 22/08/2019 8:45 1463 ML/Day 22/08/2019 8:45 Not measured Not measured 6.7°C 22/08/2019 8:45 48.8 μS/cm 22/08/2019 8:45 0.0 mm 22/08/2019 9:00 Full data
River Gauge Gulpa Creek Offtake Murray 2.3 m 22/08/2019 8:45 240 ML/Day 22/08/2019 8:45 Not measured Not measured Not measured Not measured Not measured Full data
River Gauge Frenchman Creek Murray 27.34 m 21/08/2019 7:45 Not measured Not measured 6760.7 ML/d21/08/2019 7:45 Not measured Not measured Not measured Full data
River Gauge Flow to South Australia Murray Not measured Not measured Not measured 3471.8 ML/d21/08/2019 7:45 Not measured Not measured Not measured Full data
Weirs Euston Weir Upstream Murray 47.76 m 21/08/2019 7:45 Not measured 39 GL 21/08/2019 7:45 Not measured Not measured Not measured 0.0 mm 21/02/2019 9:00 Full data
Weirs Euston Weir Downstream Murray 43.6 m 22/08/2019 8:45 9875 ML/Day 22/08/2019 8:45 Not measured Not measured 10.8°C 22/08/2019 8:45 103.7 μS/cm 22/08/2019 8:45 Not measured Full data
River Gauge Edward River Offtake Murray 2.38 m 22/08/2019 8:45 1527 ML/Day 22/08/2019 8:45 Not measured Not measured 10.6°C 22/08/2019 8:45 35.3 μS/cm 22/08/2019 8:45 Not measured Full data
River Gauge Edward Escape Wakool 0.02 m 22/08/2019 8:45 1 ML/Day 22/08/2019 8:45 Not measured Not measured 10.9°C 22/08/2019 8:45 62.1 μS/cm 22/08/2019 8:45 Not measured Full data
River Gauge Echuca Wharf Murray 87.14 m 22/08/2019 7:45 Not measured Not measured Not measured Not measured Not measured Not measured Full data
River Gauge Doctors Point Murray 2.25 m 22/08/2019 9:00 6660 ML/Day 22/08/2019 9:00 Not measured Not measured 9.8°C 22/08/2019 9:00 48.9 μS/cm 22/08/2019 9:00 Not measured Full data
Storage Dartmouth Dam Mitta 458.72 m 22/08/2019 9:15 Not measured 2312 GL 22/08/2019 9:15 Not measured Not measured Not measured Not measured Full data
River Gauge Corowa Murray 1.51 m 22/08/2019 9:00 5433 ML/Day 22/08/2019 9:00 Not measured Not measured 10.4°C 22/08/2019 9:00 62.7 μS/cm 22/08/2019 9:00 Not measured Full data
River Gauge Colignan Murray 2.33 m 22/08/2019 8:45 9547 ML/Day 22/08/2019 8:45 Not measured Not measured 11.7°C 22/08/2019 8:45 101.1 μS/cm 22/08/2019 8:45 Not measured Full data
River Gauge Colemans Mitta 2.2 m 22/08/2019 9:15 4707 ML/Day 22/08/2019 9:15 Not measured Not measured 8.4°C 22/08/2019 8:45 43.2 μS/cm 22/08/2019 8:45 Not measured Full data
River Gauge Burtundy Darling 0.5 m 22/08/2019 8:45 1 ML/Day 22/08/2019 8:45 Not measured Not measured 11.9°C 22/08/2019 8:45 1013.2 μS/cm 5/08/2019 10:45 Not measured Full data
River Gauge Bringenbrong Bridge Murray 1.41 m 22/08/2019 9:00 3177 ML/Day 22/08/2019 9:00 Not measured Not measured Not measured Not measured Not measured Full data
River Gauge Biggara Murray 0.76 m 22/08/2019 9:00 1366 ML/Day 22/08/2019 9:00 Not measured Not measured 7.2°C 22/08/2019 9:00 42.7 μS/cm 22/08/2019 9:00 3.0 mm 22/08/2019 9:00 Full data
River Gauge Barmah Choke Murray 2.36 m 22/08/2019 8:45 6657 ML/Day 22/08/2019 8:45 Not measured Not measured Not measured Not measured Not measured Full data
River Gauge Bandiana Kiewa 1.86 m 22/08/2019 8:45 1755 ML/Day 22/08/2019 8:45 Not measured Not measured 9.5°C 22/08/2019 8:45 46.0 μS/cm 22/08/2019 8:45 Not measured Full data
River Gauge Balranald Murrumbidgee 1.48 m 22/08/2019 8:45 1063 ML/Day 22/08/2019 8:45 Not measured Not measured 10.8°C 22/08/2019 8:45 220.1 μS/cm 22/08/2019 8:45 Not measured Full data
River Gauge Albury (Union Bridge) Murray 1.28 m 22/08/2019 9:00 Not measured Not measured Not measured 9.7°C 22/08/2019 9:00 50.4 μS/cm 22/08/2019 9:00 Not measured Full data